Location: Knowlton
(51.2333°N, 1.2667°E)
Time: 05:18:59
(UTC+00:00)

Cosmos 1805 Rocket - Visible Passes

Search period start: 28 July 2021 00:00
Search period end: 07 August 2021 00:00
Orbit: 606 x 629 km, 82.5° (Epoch: 27 July)

Date Brightness Start Highest point End Pass type
(mag) Time Alt. Az. Time Alt. Az. Time Alt. Az.
28 Jul 4.2 22:32:30 32° SE 22:33:52 42° E 22:38:03 10° NNE visible
29 Jul 5.3 00:09:36 17° WSW 00:11:53 25° WNW 00:15:35 10° NNW visible
29 Jul 3.5 22:49:13 40° S 22:50:43 73° E 22:55:09 10° NNE visible
30 Jul 5.9 00:26:20 10° WSW 00:29:07 16° WNW 00:31:55 10° NNW visible
30 Jul 5.4 21:28:48 14° ESE 21:30:21 16° E 21:33:02 10° NE visible
30 Jul 3.8 23:05:55 35° SSW 23:07:40 67° WNW 23:12:06 10° N visible
31 Jul 6.3 00:45:52 10° WNW 00:46:27 10° WNW 00:47:01 10° NW visible
31 Jul 4.8 21:45:30 21° ESE 21:47:02 26° E 21:50:42 10° NNE visible
31 Jul 4.6 23:22:37 24° SW 23:24:42 40° WNW 23:28:54 10° N visible
01 Aug 4.1 22:02:11 30° SE 22:03:49 43° E 22:08:01 10° NNE visible
01 Aug 5.4 23:39:17 15° WSW 23:41:50 25° WNW 23:45:31 10° NNW visible
02 Aug 3.5 22:18:50 35° S 22:20:40 74° E 22:25:05 10° NNE visible
02 Aug 6.0 23:56:19 10° W 23:59:05 16° WNW 00:01:49 10° NNW visible
03 Aug 5.4 20:58:22 13° ESE 21:00:17 16° E 21:03:00 10° NE visible
03 Aug 3.8 22:35:29 29° SSW 22:37:37 66° WNW 22:42:02 10° N visible
04 Aug 6.5 00:16:13 10° WNW 00:16:24 10° WNW 00:16:34 10° NW visible
04 Aug 4.8 21:14:59 19° SE 21:16:59 26° E 21:20:39 10° NNE visible
04 Aug 4.7 22:52:05 20° SW 22:54:39 39° WNW 22:58:50 10° N visible
05 Aug 4.0 21:31:35 25° SSE 21:33:45 43° E 21:37:57 10° NNE visible
05 Aug 5.5 23:08:41 12° WSW 23:11:47 24° WNW 23:15:26 10° NNW visible
06 Aug 3.5 21:48:09 26° S 21:50:37 74° E 21:55:01 10° NNE visible
06 Aug 6.1 23:26:19 10° W 23:29:02 16° WNW 23:31:43 10° NNW visible
